COSMOS 1285 DEB, 27800

Orbit data source: Space-Track

COSMOS 1285 DEB, 27800 is space debris originally from a launch on Tue, 04 Aug 1981 UTC launched from the Plesetsk Missile And Space Complex (PKMTR). Debris objects in space refer to the collection of defunct objects orbiting the Earth. Examples of debris include non-operational satellites, rocket bodies, and fragments generated from explosions, collisions, or faulty payload assembly.

Loading next visibility...
Identifier
27800, 1981-071P
Orbit
Molniya
Country
Flag of CISCIS
Related business
Manufacturer
Unknown
Mission
Spacecraft
Bus & Motor
Unknown
Mass
Unknown
Launch date (UTC)
1981-08-04 (45 years ago)
Launch vehicle
Unknown
Launch site
Plesetsk Missile And Space Complex (PKMTR)
Object type
Payload
Rocket body
Debris
Shape & HBR
Unknown shape, 0.5 m
Radar Cross Section
Medium (>0.1 m² and <1 m²)

Expand to show TLE details & history
Last TLE update: 16 hours ago

TLE from 16 hours ago
0 COSMOS 1285 DEB
1 27800U 81071P   26263.67546767 -.00000360  00000-0  00000-0 0  9991
2 27800  64.4096  55.8274 7139651  34.4781 355.7115  1.97651509195294
Epoch: 2026-09-20T16:12Z
TLE epoch observation values (Epoch: 2026-09-20T16:12:40.406Z)
Latitude
0.00009°
Longitude
173.03851°
Altitude
1,913.723 km
Speed
9.016 km/s
True Right ascension
03h 43m 05s
True Declination
0° 00' 00"
Sunlit
Object was in daylight at epoch
Visualization orbit readout
Latitude
Unknown
Longitude
Unknown
Altitude
Unknown
Speed
Unknown
Apparent Right ascension
Unknown
Apparent Declination
Unknown
Sunlit
N/A
Visualization observer readout
Local Sidereal Time
00:45:37
Azimuth
Unknown
Elevation
Unknown
Doppler factor
Unknown
Orbital elements
Apogee altitude
39,589.651 km
Perigee altitude
1,293.193 km
Semi-major axis
26,819.559 km
Eccentricity
0.71397
Inclination
64.4096°
RAAN
55.8274°
Arg. of periapsis
34.4781°
True anomaly
325.17944°
Mean anomaly
355.7115°
Eccentric anomaly
345.40017°
Mean motion
0.49416 °/min
Orbital period
728.51 mins
BSTAR
0
Loading maneuver chart data...
Computing Atmospheric mass density...
Loading historical data...
Loading historical data...
Loading historical data...
Loading historical data...
Loading historical data...
Loading historical data...
Loading historical data...

Documentation

Showing up to 5 results
|